Year,Month,Day,Hour,Minute,Value (Times are PST for temperature in C)
2010,09,30,00,00,9.10
2010,09,30,00,01,9.10
2010,09,30,00,02,9.10
2010,09,30,00,03,9.10
2010,09,30,00,04,9.10
2010,09,30,00,05,9.00
2010,09,30,00,06,9.00
2010,09,30,00,07,9.00
2010,09,30,00,08,9.00
2010,09,30,00,09,9.00
2010,09,30,00,10,9.00
2010,09,30,00,11,9.00
2010,09,30,00,12,9.00
2010,09,30,00,13,9.00
2010,09,30,00,14,9.00
2010,09,30,00,15,9.00
2010,09,30,00,16,9.00
2010,09,30,00,17,9.00
2010,09,30,00,18,9.00
2010,09,30,00,19,8.90
2010,09,30,00,20,8.90
2010,09,30,00,21,8.90
2010,09,30,00,22,8.90
2010,09,30,00,23,8.90
2010,09,30,00,24,8.80
2010,09,30,00,25,8.80
2010,09,30,00,26,8.80
2010,09,30,00,27,8.80
2010,09,30,00,28,8.80
2010,09,30,00,29,8.80
2010,09,30,00,30,8.80
2010,09,30,00,31,8.70
2010,09,30,00,32,8.70
2010,09,30,00,33,8.70
2010,09,30,00,34,8.70
2010,09,30,00,35,8.70
2010,09,30,00,36,8.70
2010,09,30,00,37,8.70
2010,09,30,00,38,8.70
2010,09,30,00,39,8.70
2010,09,30,00,40,8.70
2010,09,30,00,41,8.70
2010,09,30,00,42,8.70
2010,09,30,00,43,8.70
2010,09,30,00,44,8.70
2010,09,30,00,45,8.70
2010,09,30,00,46,8.70
2010,09,30,00,47,8.70
2010,09,30,00,48,8.70
2010,09,30,00,49,8.60
2010,09,30,00,50,8.60
2010,09,30,00,51,8.60
2010,09,30,00,52,8.60
2010,09,30,00,53,8.60
2010,09,30,00,54,8.60
2010,09,30,00,55,8.50
2010,09,30,00,56,8.50
2010,09,30,00,57,8.50
2010,09,30,00,58,8.40
2010,09,30,00,59,8.40
2010,09,30,01,00,8.40
2010,09,30,01,01,8.40
2010,09,30,01,02,8.40
2010,09,30,01,03,8.40
2010,09,30,01,04,8.40
2010,09,30,01,05,8.40
2010,09,30,01,06,8.40
2010,09,30,01,07,8.40
2010,09,30,01,08,8.40
2010,09,30,01,09,8.40
2010,09,30,01,10,8.40
2010,09,30,01,11,8.40
2010,09,30,01,12,8.40
2010,09,30,01,13,8.30
2010,09,30,01,14,8.30
2010,09,30,01,15,8.30
2010,09,30,01,16,8.30
2010,09,30,01,17,8.30
2010,09,30,01,18,8.30
2010,09,30,01,19,8.30
2010,09,30,01,20,8.30
2010,09,30,01,21,8.30
2010,09,30,01,22,8.30
2010,09,30,01,23,8.30
2010,09,30,01,24,8.30
2010,09,30,01,25,8.30
2010,09,30,01,26,8.20
2010,09,30,01,27,8.20
2010,09,30,01,28,8.20
2010,09,30,01,29,8.20
2010,09,30,01,30,8.20
2010,09,30,01,31,8.20
2010,09,30,01,32,8.20
2010,09,30,01,33,8.20
2010,09,30,01,34,8.20
2010,09,30,01,35,8.20
2010,09,30,01,36,8.20
2010,09,30,01,37,8.20
2010,09,30,01,38,8.20
2010,09,30,01,39,8.20
2010,09,30,01,40,8.20
2010,09,30,01,41,8.20
2010,09,30,01,42,8.20
2010,09,30,01,43,8.20
2010,09,30,01,44,8.20
2010,09,30,01,45,8.20
2010,09,30,01,46,8.20
2010,09,30,01,47,8.20
2010,09,30,01,48,8.20
2010,09,30,01,49,8.20
2010,09,30,01,50,8.20
2010,09,30,01,51,8.20
2010,09,30,01,52,8.20
2010,09,30,01,53,8.20
2010,09,30,01,54,8.10
2010,09,30,01,55,8.10
2010,09,30,01,56,8.10
2010,09,30,01,57,8.10
2010,09,30,01,58,8.10
2010,09,30,01,59,8.10
2010,09,30,02,00,8.10
2010,09,30,02,01,8.10
2010,09,30,02,02,8.10
2010,09,30,02,03,8.10
2010,09,30,02,04,8.10
2010,09,30,02,05,8.10
2010,09,30,02,06,8.00
2010,09,30,02,07,8.00
2010,09,30,02,08,8.00
2010,09,30,02,09,8.00
2010,09,30,02,10,8.00
2010,09,30,02,11,7.90
2010,09,30,02,12,7.90
2010,09,30,02,13,7.90
2010,09,30,02,14,7.90
2010,09,30,02,15,7.90
2010,09,30,02,16,7.90
2010,09,30,02,17,7.90
2010,09,30,02,18,7.90
2010,09,30,02,19,7.90
2010,09,30,02,20,7.90
2010,09,30,02,21,7.90
2010,09,30,02,22,7.90
2010,09,30,02,23,7.90
2010,09,30,02,24,7.90
2010,09,30,02,25,7.90
2010,09,30,02,26,7.90
2010,09,30,02,27,7.90
2010,09,30,02,28,7.80
2010,09,30,02,29,7.80
2010,09,30,02,30,7.80
2010,09,30,02,31,7.80
2010,09,30,02,32,7.80
2010,09,30,02,33,7.80
2010,09,30,02,34,7.80
2010,09,30,02,35,7.80
2010,09,30,02,36,7.80
2010,09,30,02,37,7.80
2010,09,30,02,38,7.80
2010,09,30,02,39,7.80
2010,09,30,02,40,7.80
2010,09,30,02,41,7.80
2010,09,30,02,42,7.80
2010,09,30,02,43,7.80
2010,09,30,02,44,7.80
2010,09,30,02,45,7.80
2010,09,30,02,46,7.80
2010,09,30,02,47,7.80
2010,09,30,02,48,7.80
2010,09,30,02,49,7.80
2010,09,30,02,50,7.80
2010,09,30,02,51,7.80
2010,09,30,02,52,7.80
2010,09,30,02,53,7.80
2010,09,30,02,54,7.80
2010,09,30,02,55,7.70
2010,09,30,02,56,7.70
2010,09,30,02,57,7.70
2010,09,30,02,58,7.70
2010,09,30,02,59,7.70
2010,09,30,03,00,7.70
2010,09,30,03,01,7.70
2010,09,30,03,02,7.70
2010,09,30,03,03,7.70
2010,09,30,03,04,7.60
2010,09,30,03,05,7.60
2010,09,30,03,06,7.60
2010,09,30,03,07,7.60
2010,09,30,03,08,7.70
2010,09,30,03,09,7.70
2010,09,30,03,10,7.70
2010,09,30,03,11,7.70
2010,09,30,03,12,7.70
2010,09,30,03,13,7.70
2010,09,30,03,14,7.70
2010,09,30,03,15,7.70
2010,09,30,03,16,7.70
2010,09,30,03,17,7.70
2010,09,30,03,18,7.70
2010,09,30,03,19,7.70
2010,09,30,03,20,7.70
2010,09,30,03,21,7.60
2010,09,30,03,22,7.60
2010,09,30,03,23,7.60
2010,09,30,03,24,7.60
2010,09,30,03,25,7.60
2010,09,30,03,26,7.60
2010,09,30,03,27,7.60
2010,09,30,03,28,7.60
2010,09,30,03,29,7.60
2010,09,30,03,30,7.50
2010,09,30,03,31,7.50
2010,09,30,03,32,7.50
2010,09,30,03,33,7.50
2010,09,30,03,34,7.40
2010,09,30,03,35,7.40
2010,09,30,03,36,7.40
2010,09,30,03,37,7.40
2010,09,30,03,38,7.40
2010,09,30,03,39,7.40
2010,09,30,03,40,7.50
2010,09,30,03,41,7.50
2010,09,30,03,42,7.50
2010,09,30,03,43,7.60
2010,09,30,03,44,7.60
2010,09,30,03,45,7.60
2010,09,30,03,46,7.60
2010,09,30,03,47,7.60
2010,09,30,03,48,7.60
2010,09,30,03,49,7.60
2010,09,30,03,50,7.60
2010,09,30,03,51,7.60
2010,09,30,03,52,7.60
2010,09,30,03,53,7.60
2010,09,30,03,54,7.50
2010,09,30,03,55,7.50
2010,09,30,03,56,7.50
2010,09,30,03,57,7.50
2010,09,30,03,58,7.50
2010,09,30,03,59,7.50
2010,09,30,04,00,7.50
2010,09,30,04,01,7.50
2010,09,30,04,02,7.50
2010,09,30,04,03,7.50
2010,09,30,04,04,7.50
2010,09,30,04,05,7.40
2010,09,30,04,06,7.40
2010,09,30,04,07,7.40
2010,09,30,04,08,7.40
2010,09,30,04,09,7.40
2010,09,30,04,10,7.40
2010,09,30,04,11,7.40
2010,09,30,04,12,7.40
2010,09,30,04,13,7.50
2010,09,30,04,14,7.50
2010,09,30,04,15,7.50
2010,09,30,04,16,7.50
2010,09,30,04,17,7.50
2010,09,30,04,18,7.50
2010,09,30,04,19,7.50
2010,09,30,04,20,7.50
2010,09,30,04,21,7.50
2010,09,30,04,22,7.50
2010,09,30,04,23,7.50
2010,09,30,04,24,7.50
2010,09,30,04,25,7.50
2010,09,30,04,26,7.50
2010,09,30,04,27,7.40
2010,09,30,04,28,7.40
2010,09,30,04,29,7.40
2010,09,30,04,30,7.40
2010,09,30,04,31,7.40
2010,09,30,04,32,7.40
2010,09,30,04,33,7.40
2010,09,30,04,34,7.40
2010,09,30,04,35,7.40
2010,09,30,04,36,7.40
2010,09,30,04,37,7.40
2010,09,30,04,38,7.40
2010,09,30,04,39,7.40
2010,09,30,04,40,7.40
2010,09,30,04,41,7.40
2010,09,30,04,42,7.30
2010,09,30,04,43,7.30
2010,09,30,04,44,7.30
2010,09,30,04,45,7.30
2010,09,30,04,46,7.30
2010,09,30,04,47,7.30
2010,09,30,04,48,7.30
2010,09,30,04,49,7.30
2010,09,30,04,50,7.30
2010,09,30,04,51,7.30
2010,09,30,04,52,7.30
2010,09,30,04,53,7.30
2010,09,30,04,54,7.30
2010,09,30,04,55,7.30
2010,09,30,04,56,7.30
2010,09,30,04,57,7.30
2010,09,30,04,58,7.40
2010,09,30,04,59,7.40
2010,09,30,05,00,7.40
2010,09,30,05,01,7.40
2010,09,30,05,02,7.40
2010,09,30,05,03,7.40
2010,09,30,05,04,7.50
2010,09,30,05,05,7.40
2010,09,30,05,06,7.40
2010,09,30,05,07,7.40
2010,09,30,05,08,7.40
2010,09,30,05,09,7.40
2010,09,30,05,10,7.50
2010,09,30,05,11,7.50
2010,09,30,05,12,7.50
2010,09,30,05,13,7.50
2010,09,30,05,14,7.50
2010,09,30,05,15,7.50
2010,09,30,05,16,7.50
2010,09,30,05,17,7.50
2010,09,30,05,18,7.40
2010,09,30,05,19,7.40
2010,09,30,05,20,7.40
2010,09,30,05,21,7.40
2010,09,30,05,22,7.40
2010,09,30,05,23,7.40
2010,09,30,05,24,7.40
2010,09,30,05,25,7.40
2010,09,30,05,26,7.40
2010,09,30,05,27,7.40
2010,09,30,05,28,7.40
2010,09,30,05,29,7.40
2010,09,30,05,30,7.40
2010,09,30,05,31,7.40
2010,09,30,05,32,7.40
2010,09,30,05,33,7.40
2010,09,30,05,34,7.40
2010,09,30,05,35,7.40
2010,09,30,05,36,7.40
2010,09,30,05,37,7.40
2010,09,30,05,38,7.30
2010,09,30,05,39,7.30
2010,09,30,05,40,7.30
2010,09,30,05,41,7.30
2010,09,30,05,42,7.30
2010,09,30,05,43,7.30
2010,09,30,05,44,7.30
2010,09,30,05,45,7.30
2010,09,30,05,46,7.30
2010,09,30,05,47,7.30
2010,09,30,05,48,7.30
2010,09,30,05,49,7.30
2010,09,30,05,50,7.30
2010,09,30,05,51,7.30
2010,09,30,05,52,7.30
2010,09,30,05,53,7.30
2010,09,30,05,54,7.30
2010,09,30,05,55,7.30
2010,09,30,05,56,7.30
2010,09,30,05,57,7.30
2010,09,30,05,58,7.20
2010,09,30,05,59,7.20
2010,09,30,06,00,7.20
2010,09,30,06,01,7.20
2010,09,30,06,02,7.20
2010,09,30,06,03,7.30
2010,09,30,06,04,7.30
2010,09,30,06,05,7.30
2010,09,30,06,06,7.30
2010,09,30,06,07,7.30
2010,09,30,06,08,7.30
2010,09,30,06,09,7.30
2010,09,30,06,10,7.30
2010,09,30,06,11,7.30
2010,09,30,06,12,7.20
2010,09,30,06,13,7.20
2010,09,30,06,14,7.20
2010,09,30,06,15,7.30
2010,09,30,06,16,7.30
2010,09,30,06,17,7.30
2010,09,30,06,18,7.30
2010,09,30,06,19,7.30
2010,09,30,06,20,7.40
2010,09,30,06,21,7.40
2010,09,30,06,22,7.40
2010,09,30,06,23,7.40
2010,09,30,06,24,7.40
2010,09,30,06,25,7.40
2010,09,30,06,26,7.40
2010,09,30,06,27,7.40
2010,09,30,06,28,7.40
2010,09,30,06,29,7.40
2010,09,30,06,30,7.40
2010,09,30,06,31,7.50
2010,09,30,06,32,7.50
2010,09,30,06,33,7.50
2010,09,30,06,34,7.50
2010,09,30,06,35,7.50
2010,09,30,06,36,7.50
2010,09,30,06,37,7.50
2010,09,30,06,38,7.50
2010,09,30,06,39,7.50
2010,09,30,06,40,7.40
2010,09,30,06,41,7.40
2010,09,30,06,42,7.40
2010,09,30,06,43,7.40
2010,09,30,06,44,7.40
2010,09,30,06,45,7.30
2010,09,30,06,46,7.30
2010,09,30,06,47,7.30
2010,09,30,06,48,7.30
2010,09,30,06,49,7.30
2010,09,30,06,50,7.30
2010,09,30,06,51,7.30
2010,09,30,06,52,7.30
2010,09,30,06,53,7.30
2010,09,30,06,54,7.30
2010,09,30,06,55,7.30
2010,09,30,06,56,7.30
2010,09,30,06,57,7.20
2010,09,30,06,58,7.20
2010,09,30,06,59,7.20
2010,09,30,07,00,7.20
2010,09,30,07,01,7.20
2010,09,30,07,02,7.20
2010,09,30,07,03,7.20
2010,09,30,07,04,7.20
2010,09,30,07,05,7.20
2010,09,30,07,06,7.20
2010,09,30,07,07,7.20
2010,09,30,07,08,7.20
2010,09,30,07,09,7.20
2010,09,30,07,10,7.20
2010,09,30,07,11,7.20
2010,09,30,07,12,7.20
2010,09,30,07,13,7.20
2010,09,30,07,14,7.20
2010,09,30,07,15,7.20
2010,09,30,07,16,7.20
2010,09,30,07,17,7.20
2010,09,30,07,18,7.20
2010,09,30,07,19,7.20
2010,09,30,07,20,7.20
2010,09,30,07,21,7.20
2010,09,30,07,22,7.20
2010,09,30,07,23,7.20
2010,09,30,07,24,7.20
2010,09,30,07,25,7.20
2010,09,30,07,26,7.20
2010,09,30,07,27,7.20
2010,09,30,07,28,7.20
2010,09,30,07,29,7.20
2010,09,30,07,30,7.20
2010,09,30,07,31,7.30
2010,09,30,07,32,7.30
2010,09,30,07,33,7.30
2010,09,30,07,34,7.40
2010,09,30,07,35,7.50
2010,09,30,07,36,7.50
2010,09,30,07,37,7.60
2010,09,30,07,38,7.70
2010,09,30,07,39,7.70
2010,09,30,07,40,7.70
2010,09,30,07,41,7.80
2010,09,30,07,42,7.80
2010,09,30,07,43,7.90
2010,09,30,07,44,7.90
2010,09,30,07,45,7.90
2010,09,30,07,46,7.90
2010,09,30,07,47,7.90
2010,09,30,07,48,7.90
2010,09,30,07,49,7.90
2010,09,30,07,50,7.90
2010,09,30,07,51,7.90
2010,09,30,07,52,8.00
2010,09,30,07,53,8.00
2010,09,30,07,54,8.10
2010,09,30,07,55,8.10
2010,09,30,07,56,8.10
2010,09,30,07,57,8.10
2010,09,30,07,58,8.20
2010,09,30,07,59,8.20
2010,09,30,08,00,8.30
2010,09,30,08,01,8.40
2010,09,30,08,02,8.40
2010,09,30,08,03,8.50
2010,09,30,08,04,8.50
2010,09,30,08,05,8.60
2010,09,30,08,06,8.60
2010,09,30,08,07,8.70
2010,09,30,08,08,8.70
2010,09,30,08,09,8.70
2010,09,30,08,10,8.70
2010,09,30,08,11,8.80
2010,09,30,08,12,8.80
2010,09,30,08,13,8.80
2010,09,30,08,14,8.90
2010,09,30,08,15,8.90
2010,09,30,08,16,9.00
2010,09,30,08,17,9.10
2010,09,30,08,18,9.10
2010,09,30,08,19,9.10
2010,09,30,08,20,9.20
2010,09,30,08,21,9.30
2010,09,30,08,22,9.40
2010,09,30,08,23,9.50
2010,09,30,08,24,9.50
2010,09,30,08,25,9.70
2010,09,30,08,26,9.70
2010,09,30,08,27,9.80
2010,09,30,08,28,9.80
2010,09,30,08,29,9.90
2010,09,30,08,30,10.00
2010,09,30,08,31,10.10
2010,09,30,08,32,10.30
2010,09,30,08,33,10.40
2010,09,30,08,34,10.40
2010,09,30,08,35,10.50
2010,09,30,08,36,10.50
2010,09,30,08,37,10.50
2010,09,30,08,38,10.60
2010,09,30,08,39,10.70
2010,09,30,08,40,10.70
2010,09,30,08,41,10.80
2010,09,30,08,42,10.80
2010,09,30,08,43,10.80
2010,09,30,08,44,10.80
2010,09,30,08,45,10.90
2010,09,30,08,46,10.90
2010,09,30,08,47,11.00
2010,09,30,08,48,11.00
2010,09,30,08,49,11.10
2010,09,30,08,50,11.20
2010,09,30,08,51,11.30
2010,09,30,08,52,11.30
2010,09,30,08,53,11.30
2010,09,30,08,54,11.30
2010,09,30,08,55,11.20
2010,09,30,08,56,11.20
2010,09,30,08,57,11.20
2010,09,30,08,58,11.20
2010,09,30,08,59,11.20
2010,09,30,09,00,11.30
2010,09,30,09,01,11.30
2010,09,30,09,02,11.40
2010,09,30,09,03,11.40
2010,09,30,09,04,11.50
2010,09,30,09,05,11.50
2010,09,30,09,06,11.50
2010,09,30,09,07,11.50
2010,09,30,09,08,11.50
2010,09,30,09,09,11.50
2010,09,30,09,10,11.60
2010,09,30,09,11,11.60
2010,09,30,09,12,11.70
2010,09,30,09,13,11.80
2010,09,30,09,14,12.00
2010,09,30,09,15,12.10
2010,09,30,09,16,12.20
2010,09,30,09,17,12.30
2010,09,30,09,18,12.40
2010,09,30,09,19,12.40
2010,09,30,09,20,12.40
2010,09,30,09,21,12.50
2010,09,30,09,22,12.50
2010,09,30,09,23,12.50
2010,09,30,09,24,12.60
2010,09,30,09,25,12.60
2010,09,30,09,26,12.70
2010,09,30,09,27,12.70
2010,09,30,09,28,12.70
2010,09,30,09,29,12.70
2010,09,30,09,30,12.80
2010,09,30,09,31,12.80
2010,09,30,09,32,12.80
2010,09,30,09,33,12.80
2010,09,30,09,34,12.80
2010,09,30,09,35,12.90
2010,09,30,09,36,13.00
2010,09,30,09,37,13.10
2010,09,30,09,38,13.30
2010,09,30,09,39,13.30
2010,09,30,09,40,13.40
2010,09,30,09,41,13.40
2010,09,30,09,42,13.60
2010,09,30,09,43,13.70
2010,09,30,09,44,13.80
2010,09,30,09,45,13.90
2010,09,30,09,46,14.00
2010,09,30,09,47,14.00
2010,09,30,09,48,14.10
2010,09,30,09,49,14.20
2010,09,30,09,50,14.30
2010,09,30,09,51,14.40
2010,09,30,09,52,14.50
2010,09,30,09,53,14.50
2010,09,30,09,54,14.60
2010,09,30,09,55,14.70
2010,09,30,09,56,14.70
2010,09,30,09,57,14.80
2010,09,30,09,58,14.90
2010,09,30,09,59,15.00
2010,09,30,10,00,15.00
2010,09,30,10,01,15.00
2010,09,30,10,02,15.00
2010,09,30,10,03,15.10
2010,09,30,10,04,15.20
2010,09,30,10,05,15.30
2010,09,30,10,06,15.30
2010,09,30,10,07,15.40
2010,09,30,10,08,15.40
2010,09,30,10,09,15.40
2010,09,30,10,10,15.50
2010,09,30,10,11,15.60
2010,09,30,10,12,15.60
2010,09,30,10,13,15.70
2010,09,30,10,14,15.70
2010,09,30,10,15,15.70
2010,09,30,10,16,15.70
2010,09,30,10,17,15.80
2010,09,30,10,18,15.80
2010,09,30,10,19,15.90
2010,09,30,10,20,15.90
2010,09,30,10,21,16.00
2010,09,30,10,22,16.00
2010,09,30,10,23,16.10
2010,09,30,10,24,16.10
2010,09,30,10,25,16.10
2010,09,30,10,26,16.20
2010,09,30,10,27,16.20
2010,09,30,10,28,16.20
2010,09,30,10,29,16.20
2010,09,30,10,30,16.20
2010,09,30,10,31,16.20
2010,09,30,10,32,16.20
2010,09,30,10,33,16.20
2010,09,30,10,34,16.20
2010,09,30,10,35,16.20
2010,09,30,10,36,16.10
2010,09,30,10,37,16.00
2010,09,30,10,38,16.00
2010,09,30,10,39,15.90
2010,09,30,10,40,15.90
2010,09,30,10,41,15.80
2010,09,30,10,42,15.80
2010,09,30,10,43,15.80
2010,09,30,10,44,15.80
2010,09,30,10,45,15.80
2010,09,30,10,46,15.90
2010,09,30,10,47,15.90
2010,09,30,10,48,15.90
2010,09,30,10,49,15.90
2010,09,30,10,50,15.90
2010,09,30,10,51,15.90
2010,09,30,10,52,16.00
2010,09,30,10,53,16.00
2010,09,30,10,54,16.00
2010,09,30,10,55,16.00
2010,09,30,10,56,16.00
2010,09,30,10,57,16.00
2010,09,30,10,58,16.00
2010,09,30,10,59,16.00
2010,09,30,11,00,16.10
2010,09,30,11,01,16.10
2010,09,30,11,02,16.00
2010,09,30,11,03,16.00
2010,09,30,11,04,16.00
2010,09,30,11,05,16.00
2010,09,30,11,06,16.00
2010,09,30,11,07,16.00
2010,09,30,11,08,16.00
2010,09,30,11,09,15.90
2010,09,30,11,10,15.90
2010,09,30,11,11,15.90
2010,09,30,11,12,15.80
2010,09,30,11,13,15.80
2010,09,30,11,14,15.80
2010,09,30,11,15,15.80
2010,09,30,11,16,15.80
2010,09,30,11,17,15.80
2010,09,30,11,18,15.80
2010,09,30,11,19,15.80
2010,09,30,11,20,15.80
2010,09,30,11,21,15.80
2010,09,30,11,22,15.80
2010,09,30,11,23,15.80
2010,09,30,11,24,15.80
2010,09,30,11,25,15.80
2010,09,30,11,26,15.80
2010,09,30,11,27,15.80
2010,09,30,11,28,15.80
2010,09,30,11,29,15.90
2010,09,30,11,30,15.90
2010,09,30,11,31,16.00
2010,09,30,11,32,16.00
2010,09,30,11,33,16.00
2010,09,30,11,34,16.10
2010,09,30,11,35,16.10
2010,09,30,11,36,16.10
2010,09,30,11,37,16.10
2010,09,30,11,38,16.10
2010,09,30,11,39,16.20
2010,09,30,11,40,16.30
2010,09,30,11,41,16.30
2010,09,30,11,42,16.40
2010,09,30,11,43,16.50
2010,09,30,11,44,16.50
2010,09,30,11,45,16.60
2010,09,30,11,46,16.60
2010,09,30,11,47,16.60
2010,09,30,11,48,16.60
2010,09,30,11,49,16.70
2010,09,30,11,50,16.80
2010,09,30,11,51,16.80
2010,09,30,11,52,16.80
2010,09,30,11,53,16.90
2010,09,30,11,54,16.90
2010,09,30,11,55,16.90
2010,09,30,11,56,16.90
2010,09,30,11,57,16.90
2010,09,30,11,58,16.90
2010,09,30,11,59,17.00
2010,09,30,12,00,17.00
2010,09,30,12,01,17.10
2010,09,30,12,02,17.10
2010,09,30,12,03,17.10
2010,09,30,12,04,17.10
2010,09,30,12,05,17.20
2010,09,30,12,06,17.20
2010,09,30,12,07,17.20
2010,09,30,12,08,17.10
2010,09,30,12,09,17.10
2010,09,30,12,10,17.10
2010,09,30,12,11,17.10
2010,09,30,12,12,17.10
2010,09,30,12,13,17.00
2010,09,30,12,14,17.00
2010,09,30,12,15,16.90
2010,09,30,12,16,16.90
2010,09,30,12,17,16.80
2010,09,30,12,18,16.80
2010,09,30,12,19,16.80
2010,09,30,12,20,16.80
2010,09,30,12,21,16.70
2010,09,30,12,22,16.70
2010,09,30,12,23,16.80
2010,09,30,12,24,16.80
2010,09,30,12,25,16.90
2010,09,30,12,26,17.00
2010,09,30,12,27,17.00
2010,09,30,12,28,17.10
2010,09,30,12,29,17.10
2010,09,30,12,30,17.10
2010,09,30,12,31,17.20
2010,09,30,12,32,17.20
2010,09,30,12,33,17.20
2010,09,30,12,34,17.20
2010,09,30,12,35,17.30
2010,09,30,12,36,17.30
2010,09,30,12,37,17.30
2010,09,30,12,38,17.30
2010,09,30,12,39,17.40
2010,09,30,12,40,17.50
2010,09,30,12,41,17.50
2010,09,30,12,42,17.50
2010,09,30,12,43,17.60
2010,09,30,12,44,17.60
2010,09,30,12,45,17.70
2010,09,30,12,46,17.70
2010,09,30,12,47,17.70
2010,09,30,12,48,17.70
2010,09,30,12,49,17.70
2010,09,30,12,50,17.70
2010,09,30,12,51,17.80
2010,09,30,12,52,17.80
2010,09,30,12,53,17.80
2010,09,30,12,54,17.80
2010,09,30,12,55,17.90
2010,09,30,12,56,18.00
2010,09,30,12,57,18.10
2010,09,30,12,58,18.10
2010,09,30,12,59,18.20
2010,09,30,13,00,18.20
2010,09,30,13,01,18.30
2010,09,30,13,02,18.40
2010,09,30,13,03,18.50
2010,09,30,13,04,18.50
2010,09,30,13,05,18.60
2010,09,30,13,06,18.70
2010,09,30,13,07,18.70
2010,09,30,13,08,18.80
2010,09,30,13,09,18.80
2010,09,30,13,10,18.80
2010,09,30,13,11,18.80
2010,09,30,13,12,18.80
2010,09,30,13,13,18.80
2010,09,30,13,14,18.80
2010,09,30,13,15,18.90
2010,09,30,13,16,18.90
2010,09,30,13,17,19.00
2010,09,30,13,18,19.00
2010,09,30,13,19,19.00
2010,09,30,13,20,19.00
2010,09,30,13,21,19.00
2010,09,30,13,22,18.90
2010,09,30,13,23,18.90
2010,09,30,13,24,18.90
2010,09,30,13,25,18.80
2010,09,30,13,26,18.80
2010,09,30,13,27,18.80
2010,09,30,13,28,18.80
2010,09,30,13,29,18.80
2010,09,30,13,30,18.80
2010,09,30,13,31,18.80
2010,09,30,13,32,18.90
2010,09,30,13,33,18.90
2010,09,30,13,34,18.90
2010,09,30,13,35,18.90
2010,09,30,13,36,18.80
2010,09,30,13,37,18.80
2010,09,30,13,38,18.80
2010,09,30,13,39,18.80
2010,09,30,13,40,18.80
2010,09,30,13,41,18.80
2010,09,30,13,42,18.80
2010,09,30,13,43,18.80
2010,09,30,13,44,18.80
2010,09,30,13,45,18.80
2010,09,30,13,46,18.80
2010,09,30,13,47,18.80
2010,09,30,13,48,18.80
2010,09,30,13,49,18.70
2010,09,30,13,50,18.70
2010,09,30,13,51,18.70
2010,09,30,13,52,18.60
2010,09,30,13,53,18.60
2010,09,30,13,54,18.70
2010,09,30,13,55,18.70
2010,09,30,13,56,18.80
2010,09,30,13,57,18.90
2010,09,30,13,58,18.90
2010,09,30,13,59,18.90
2010,09,30,14,00,18.90
2010,09,30,14,01,18.90
2010,09,30,14,02,18.90
2010,09,30,14,03,18.90
2010,09,30,14,04,18.90
2010,09,30,14,05,18.90
2010,09,30,14,06,18.90
2010,09,30,14,07,18.90
2010,09,30,14,08,18.90
2010,09,30,14,09,18.90
2010,09,30,14,10,18.90
2010,09,30,14,11,18.80
2010,09,30,14,12,18.80
2010,09,30,14,13,18.70
2010,09,30,14,14,18.70
2010,09,30,14,15,18.70
2010,09,30,14,16,18.70
2010,09,30,14,17,18.70
2010,09,30,14,18,18.70
2010,09,30,14,19,18.70
2010,09,30,14,20,18.80
2010,09,30,14,21,18.80
2010,09,30,14,22,18.80
2010,09,30,14,23,18.80
2010,09,30,14,24,18.90
2010,09,30,14,25,18.90
2010,09,30,14,26,18.90
2010,09,30,14,27,19.00
2010,09,30,14,28,19.00
2010,09,30,14,29,19.00
2010,09,30,14,30,19.00
2010,09,30,14,31,19.10
2010,09,30,14,32,19.10
2010,09,30,14,33,19.00
2010,09,30,14,34,19.00
2010,09,30,14,35,18.90
2010,09,30,14,36,18.90
2010,09,30,14,37,19.00
2010,09,30,14,38,19.00
2010,09,30,14,39,19.10
2010,09,30,14,40,19.10
2010,09,30,14,41,19.20
2010,09,30,14,42,19.20
2010,09,30,14,43,19.20
2010,09,30,14,44,19.30
2010,09,30,14,45,19.30
2010,09,30,14,46,19.30
2010,09,30,14,47,19.30
2010,09,30,14,48,19.30
2010,09,30,14,49,19.30
2010,09,30,14,50,19.30
2010,09,30,14,51,19.30
2010,09,30,14,52,19.30
2010,09,30,14,53,19.30
2010,09,30,14,54,19.30
2010,09,30,14,55,19.30
2010,09,30,14,56,19.30
2010,09,30,14,57,19.30
2010,09,30,14,58,19.30
2010,09,30,14,59,19.20
2010,09,30,15,00,19.20
2010,09,30,15,01,19.10
2010,09,30,15,02,19.10
2010,09,30,15,03,19.00
2010,09,30,15,04,19.00
2010,09,30,15,05,18.90
2010,09,30,15,06,18.90
2010,09,30,15,07,18.90
2010,09,30,15,08,18.90
2010,09,30,15,09,18.90
2010,09,30,15,10,18.90
2010,09,30,15,11,18.90
2010,09,30,15,12,18.90
2010,09,30,15,13,18.90
2010,09,30,15,14,19.00
2010,09,30,15,15,19.00
2010,09,30,15,16,19.00
2010,09,30,15,17,19.00
2010,09,30,15,18,19.00
2010,09,30,15,19,19.00
2010,09,30,15,20,19.00
2010,09,30,15,21,19.00
2010,09,30,15,22,19.00
2010,09,30,15,23,19.00
2010,09,30,15,24,19.00
2010,09,30,15,25,19.10
2010,09,30,15,26,19.10
2010,09,30,15,27,19.10
2010,09,30,15,28,19.20
2010,09,30,15,29,19.20
2010,09,30,15,30,19.20
2010,09,30,15,31,19.30
2010,09,30,15,32,19.30
2010,09,30,15,33,19.40
2010,09,30,15,34,19.40
2010,09,30,15,35,19.40
2010,09,30,15,36,19.40
2010,09,30,15,37,19.30
2010,09,30,15,38,19.30
2010,09,30,15,39,19.30
2010,09,30,15,40,19.30
2010,09,30,15,41,19.30
2010,09,30,15,42,19.30
2010,09,30,15,43,19.30
2010,09,30,15,44,19.30
2010,09,30,15,45,19.30
2010,09,30,15,46,19.40
2010,09,30,15,47,19.40
2010,09,30,15,48,19.40
2010,09,30,15,49,19.40
2010,09,30,15,50,19.40
2010,09,30,15,51,19.30
2010,09,30,15,52,19.30
2010,09,30,15,53,19.30
2010,09,30,15,54,19.30
2010,09,30,15,55,19.30
2010,09,30,15,56,19.30
2010,09,30,15,57,19.30
2010,09,30,15,58,19.30
2010,09,30,15,59,19.30
2010,09,30,16,00,19.30
2010,09,30,16,01,19.20
2010,09,30,16,02,19.20
2010,09,30,16,03,19.20
2010,09,30,16,04,19.20
2010,09,30,16,05,19.20
2010,09,30,16,06,19.20
2010,09,30,16,07,19.10
2010,09,30,16,08,19.10
2010,09,30,16,09,19.10
2010,09,30,16,10,19.10
2010,09,30,16,11,19.10
2010,09,30,16,12,19.10
2010,09,30,16,13,19.10
2010,09,30,16,14,19.10
2010,09,30,16,15,19.10
2010,09,30,16,16,19.10
2010,09,30,16,17,19.10
2010,09,30,16,18,19.10
2010,09,30,16,19,19.10
2010,09,30,16,20,19.20
2010,09,30,16,21,19.20
2010,09,30,16,22,19.20
2010,09,30,16,23,19.20
2010,09,30,16,24,19.20
2010,09,30,16,25,19.20
2010,09,30,16,26,19.20
2010,09,30,16,27,19.20
2010,09,30,16,28,19.20
2010,09,30,16,29,19.20
2010,09,30,16,30,19.20
2010,09,30,16,31,19.10
2010,09,30,16,32,19.10
2010,09,30,16,33,19.10
2010,09,30,16,34,19.10
2010,09,30,16,35,19.10
2010,09,30,16,36,19.00
2010,09,30,16,37,19.00
2010,09,30,16,38,19.00
2010,09,30,16,39,19.10
2010,09,30,16,40,19.10
2010,09,30,16,41,19.10
2010,09,30,16,42,19.20
2010,09,30,16,43,19.20
2010,09,30,16,44,19.20
2010,09,30,16,45,19.20
2010,09,30,16,46,19.20
2010,09,30,16,47,19.10
2010,09,30,16,48,19.10
2010,09,30,16,49,19.10
2010,09,30,16,50,19.10
2010,09,30,16,51,19.00
2010,09,30,16,52,19.00
2010,09,30,16,53,19.00
2010,09,30,16,54,18.90
2010,09,30,16,55,18.90
2010,09,30,16,56,18.90
2010,09,30,16,57,18.90
2010,09,30,16,58,19.00
2010,09,30,16,59,19.00
2010,09,30,17,00,19.00
2010,09,30,17,01,19.00
2010,09,30,17,02,19.00
2010,09,30,17,03,19.00
2010,09,30,17,04,18.90
2010,09,30,17,05,18.90
2010,09,30,17,06,18.90
2010,09,30,17,07,18.80
2010,09,30,17,08,18.80
2010,09,30,17,09,18.80
2010,09,30,17,10,18.80
2010,09,30,17,11,18.70
2010,09,30,17,12,18.70
2010,09,30,17,13,18.70
2010,09,30,17,14,18.70
2010,09,30,17,15,18.70
2010,09,30,17,16,18.70
2010,09,30,17,17,18.70
2010,09,30,17,18,18.70
2010,09,30,17,19,18.60
2010,09,30,17,20,18.60
2010,09,30,17,21,18.60
2010,09,30,17,22,18.50
2010,09,30,17,23,18.50
2010,09,30,17,24,18.50
2010,09,30,17,25,18.40
2010,09,30,17,26,18.50
2010,09,30,17,27,18.40
2010,09,30,17,28,18.40
2010,09,30,17,29,18.40
2010,09,30,17,30,18.40
2010,09,30,17,31,18.40
2010,09,30,17,32,18.40
2010,09,30,17,33,18.30
2010,09,30,17,34,18.30
2010,09,30,17,35,18.30
2010,09,30,17,36,18.20
2010,09,30,17,37,18.20
2010,09,30,17,38,18.10
2010,09,30,17,39,18.10
2010,09,30,17,40,18.10
2010,09,30,17,41,18.00